Погода в Свон-Ривер

Канада     52°06′47″N   101°15′05″W
темп.,
°C
ветер,
м/с
пор.,
м/с
влажн.,
%
обл.,
%
осадки,
мм/ч
давл.,
гПа
погр.,
м
25 июня, сб
сб2501:00+12юз358526 0.1 101085
04:00+9юз379397 0.0 1010132
07:00+10з2694100 0.0 1010260
10:00+11с4689100 0.1 1010757
13:00+9с51092100 0.6 1012899
16:00+9с101693100 5.4 10151010
19:00+10св2591100 8.1 1018264
22:00+9юз3494100 0.3 101853
26 июня, вс
вс2601:00+8з3994100 0.7 1020171
04:00+8зюз369242 0.0 1021107
07:00+8юз3793100 0.0 1021168
10:00+15з58804 0.0 1020535
13:00+20зсз5666100 0.7 10201139
16:00+17з5117899 1.1 1019281
19:00+19зюз6108022 2.7 1018386
22:00+15юз468710 1.3 101890
27 июня, пн
пн2701:00+13ююз512910 1.3 1018212
04:00+12юз615869 0.0 1016284
07:00+11зюз488969 0.1 1018179
10:00+15зсз467754 0.3 1018750
13:00+18сз5660100 0.3 10171626
16:00+19зсз5860100 0.0 10172323
19:00+16зсз510705 0.3 1017472
22:00+11с35815 0.3 102096
28 июня, вт
вт2801:00+7сз22880 0.3 102217
04:00+5зюз22880 0.0 102319
07:00+6юз35860 0.0 102498
10:00+12з45710 0.0 1023532
13:00+16з355511 0.0 10211704
16:00+18зюз455212 0.0 10192008
19:00+17юз46683 0.0 1018711
22:00+12ююз35795 0.0 101755
29 июня, ср
ср2901:00+10ю3578100 0.0 101770
04:00+9ююв2378100 0.0 101644
07:00+12ю3977100 0.0 1012222
10:00+12ю3992100 0.8 1011356
13:00+13всв2497100 2.0 1009187
16:00+14св2395100 0.5 1007266
19:00+12св3599100 3.6 1007271
22:00+12св379997 0.2 1008341